Regional Weather Roundup
Issued by NWS Burlington, VT

Home | Current Version | Previous Version | Text Only | Print | Product List | Glossary On
Versions: 1 2 3 4 5 6 7 8 9 10 11 12 13 14 15 16 17 18 19 20 21 22 23 24 25 26 27 28 29 30 31 32 33 34 35 36 37 38 39 40 41 42 43 44 45 46 47 48 49 50
000
ASUS41 KBTV 181730
RWRBTV
VERMONT REGIONAL WEATHER ROUNDUP
NATIONAL WEATHER SERVICE BURLINGTON VT
100 PM EDT SAT APR 18 2015

NOTE: "FAIR" INDICATES FEW OR NO CLOUDS BELOW 12,000 FEET WITH NO
SIGNIFICANT WEATHER AND/OR OBSTRUCTIONS TO VISIBILITY.

* THESE REPORTS ARE NOT UNDER NWS QUALITY CONTROL AND/OR DO NOT
  REPORT WEATHER SUCH AS PRECIPITATION AND FOG.

VTZ001>019-181800-
_____VERMONT_____


CITY           SKY/WX    TMP DP  RH WIND       PRES   REMARKS
BURLINGTON     PTSUNNY   65  36  34 S14G20    29.81F
MONTPELIER     PTSUNNY   61  34  36 SW10G17   29.87F
MORRISVILLE    PTSUNNY   63  37  38 VRB5      29.82F
ST. JOHNSBURY*   N/A     62  34  35 MISG      29.82F
LYNDONVILLE*   PTSUNNY   58  29  32 CALM      29.84F
MIDDLEBURY*    PTSUNNY   62  38  41 S10       29.84F
RUTLAND*       PTSUNNY  N/A N/A N/A W7        29.85F
SPRINGFIELD    CLOUDY    63  33  32 NW9       29.86F
HIGHGATE*      LGT RAIN  49  33  52 NW8       29.90R
NEWPORT*       PTSUNNY   58  33  38 SW6       29.81F
BENNINGTON     CLOUDY    63  39  41 VRB6      29.89F
SUTTON*          N/A     57 N/A N/A MISG        N/A
GALLUP MILLS*    N/A     59 N/A N/A MISG        N/A
MT. MANSFIELD*   N/A     48 N/A N/A CALM        N/A

_____LAKE CHAMPLAIN_____


CITY           SKY/WX    TMP DP  RH WIND       PRES   REMARKS
BURTON ISLAND*   N/A     43  32  65 NW12        N/A
COLCHESTER RF*   N/A     48  30  49 S15         N/A
DIAMOND ISL*     N/A     55  32  41 SW10        N/A

$$

NYZ007-026>031-035-052-083-181800-
_____NORTHERN NEW YORK_____


CITY           SKY/WX    TMP DP  RH WIND       PRES   REMARKS
PLATTSBURGH    LGT RAIN  50  29  44 NW5       29.86S
SARANAC LAKE   CLOUDY    55  29  36 W14G25    29.84S
MASSENA        CLOUDY    56  37  49 NE7       29.90S
OGDENSBURG*    SUNNY     63  36  36 W12G18    29.91R
POTSDAM*       MOSUNNY   61  39  44 W13G22    29.90S
STARK FALLS*     N/A     54 N/A N/A NW8         N/A
WATERTOWN      SUNNY     57  45  64 W13G20    29.93S
FT DRUM        SUNNY     60  44  56 W14G20    29.90S
ALBANY         PTSUNNY   70  41  34 W6        29.88F
GLENS FALLS    PTSUNNY   66  43  43 S9        29.86F

$$
NHZ002-005-011-181800-
_____NEW HAMPSHIRE_____


CITY           SKY/WX    TMP DP  RH WIND       PRES   REMARKS
LEBANON        PTSUNNY   65  34  31 SW14      29.84F
KEENE          PTSUNNY   66  36  32 W6        29.87F
MT WASHINGTON  PTSUNNY   34  27  75 W16         N/A
PLYMOUTH       PTSUNNY   64  45  50 SE6       29.83F
WHITEFIELD     PTSUNNY   60  32  34 SW5       29.84F

$$

_____REGIONAL QUEBEC LOCATIONS_____


CITY           SKY/WX    TMP DP  RH WIND       PRES   REMARKS
MONTREAL       CLOUDY    43  32  65 N14       29.91F
QUEBEC CITY    PTSUNNY   45  25  45 E6        29.92F
SHERBROOKE     PTSUNNY   52  23  32 NW6       29.85F

_____REGIONAL ONTARIO LOCATIONS_____


CITY           SKY/WX    TMP DP  RH WIND       PRES   REMARKS
OTTAWA         MOSUNNY   59  32  36 W14G20    29.90S

______KEY______
VSB  - VISIBILITY IN MILES
WCI  - WIND CHILL INDEX
HX   - HEAT INDEX
$$
NNNN


USA.gov is the U.S. government's official web portal to all federal, state and local government web resources and services.